Stündliche Wetter Abomei

Heute, 23 Juni, Mittwoch

Zeit Temperatur Niederschläge Wind Luftdruck Luftfeuchtigkeit
00:00 +25°C° 0.2 mm 2 m/S 739 mmHg 89%
01:00 +25°C° 0 mm 2 m/S 739 mmHg 89%
02:00 +25°C° 0 mm 2 m/S 739 mmHg 89%
03:00 +24°C° 0 mm 2 m/S 738 mmHg 89%
04:00 +24°C° 0 mm 2 m/S 739 mmHg 89%
05:00 +24°C° 0 mm 1 m/S 739 mmHg 89%
06:00 +24°C° 0 mm 1 m/S 739 mmHg 89%
07:00 +25°C° 0 mm 1 m/S 740 mmHg 86%
08:00 +26°C° 0 mm 2 m/S 740 mmHg 82%
09:00 +27°C° 0 mm 2 m/S 740 mmHg 78%
10:00 +28°C° 0.4 mm 2 m/S 740 mmHg 72%
11:00 +30°C° 0.4 mm 2 m/S 739 mmHg 67%
12:00 +31°C° 0.4 mm 1 m/S 739 mmHg 62%
13:00 +31°C° 0.7 mm 2 m/S 739 mmHg 65%
14:00 +30°C° 0.7 mm 2 m/S 738 mmHg 67%
15:00 +30°C° 0.7 mm 3 m/S 738 mmHg 70%
16:00 +28°C° 1.7 mm 3 m/S 738 mmHg 76%
17:00 +27°C° 1.7 mm 3 m/S 738 mmHg 83%
18:00 +26°C° 1.7 mm 3 m/S 739 mmHg 89%
19:00 +25°C° 0.2 mm 2 m/S 739 mmHg 90%
20:00 +25°C° 0.2 mm 2 m/S 739 mmHg 92%
21:00 +25°C° 0.2 mm 2 m/S 740 mmHg 93%
22:00 +25°C° 0 mm 2 m/S 740 mmHg 93%
23:00 +24°C° 0 mm 2 m/S 740 mmHg 93%

Morgen, 24 Juni, Donnerstag

Zeit Temperatur Niederschläge Wind Luftdruck Luftfeuchtigkeit
00:00 +24°C° 0 mm 2 m/S 739 mmHg 93%
01:00 +24°C° 0 mm 2 m/S 739 mmHg 94%
02:00 +24°C° 0 mm 1 m/S 739 mmHg 95%
03:00 +24°C° 0 mm 1 m/S 739 mmHg 95%
04:00 +24°C° 0 mm 1 m/S 739 mmHg 95%
05:00 +24°C° 0 mm 1 m/S 740 mmHg 96%
06:00 +24°C° 0 mm 1 m/S 740 mmHg 96%
07:00 +25°C° 0 mm 1 m/S 740 mmHg 88%
08:00 +27°C° 0 mm 1 m/S 741 mmHg 80%
09:00 +28°C° 0 mm 2 m/S 741 mmHg 72%
10:00 +29°C° 0.5 mm 2 m/S 740 mmHg 72%
11:00 +29°C° 0.5 mm 2 m/S 740 mmHg 72%
12:00 +29°C° 0.5 mm 2 m/S 740 mmHg 72%
13:00 +29°C° 0.9 mm 2 m/S 739 mmHg 72%
14:00 +29°C° 0.9 mm 3 m/S 739 mmHg 72%
15:00 +29°C° 0.9 mm 3 m/S 738 mmHg 73%
16:00 +28°C° 0.2 mm 3 m/S 739 mmHg 76%
17:00 +28°C° 0.2 mm 2 m/S 739 mmHg 79%
18:00 +27°C° 0.2 mm 2 m/S 739 mmHg 82%
19:00 +26°C° 0 mm 2 m/S 739 mmHg 85%
20:00 +25°C° 0 mm 2 m/S 740 mmHg 88%
21:00 +25°C° 0 mm 2 m/S 740 mmHg 91%
22:00 +24°C° 0 mm 2 m/S 740 mmHg 92%
23:00 +24°C° 0 mm 2 m/S 740 mmHg 94%

übermorgen, 25 Juni, Freitag

Zeit Temperatur Niederschläge Wind Luftdruck Luftfeuchtigkeit
00:00 +24°C° 0 mm 1 m/S 740 mmHg 96%
01:00 +23°C° 0 mm 1 m/S 740 mmHg 96%
02:00 +23°C° 0 mm 1 m/S 739 mmHg 96%
03:00 +23°C° 0 mm 1 m/S 739 mmHg 96%
04:00 +23°C° 0 mm 1 m/S 739 mmHg 96%
05:00 +23°C° 0 mm 1 m/S 739 mmHg 95%
06:00 +23°C° 0 mm 1 m/S 740 mmHg 95%
07:00 +25°C° 0 mm 1 m/S 740 mmHg 85%
08:00 +27°C° 0 mm 1 m/S 741 mmHg 76%
09:00 +29°C° 0 mm 1 m/S 741 mmHg 67%
10:00 +30°C° 0.1 mm 1 m/S 741 mmHg 64%
11:00 +31°C° 0.1 mm 1 m/S 740 mmHg 60%
12:00 +32°C° 0.1 mm 1 m/S 740 mmHg 57%
13:00 +31°C° 0.5 mm 1 m/S 739 mmHg 59%
14:00 +31°C° 0.5 mm 1 m/S 739 mmHg 61%
15:00 +31°C° 0.5 mm 1 m/S 738 mmHg 62%
16:00 +30°C° 0.1 mm 1 m/S 738 mmHg 68%
17:00 +28°C° 0.1 mm 2 m/S 738 mmHg 73%
18:00 +27°C° 0.1 mm 2 m/S 738 mmHg 79%
19:00 +26°C° 2.1 mm 2 m/S 739 mmHg 85%
20:00 +25°C° 2.1 mm 2 m/S 740 mmHg 90%
21:00 +24°C° 2.1 mm 2 m/S 740 mmHg 96%
22:00 +24°C° 0.2 mm 1 m/S 740 mmHg 96%
23:00 +24°C° 0.2 mm 1 m/S 739 mmHg 96%

26 Juni, Samstag

Zeit Temperatur Niederschläge Wind Luftdruck Luftfeuchtigkeit
00:00 +23°C° 0.2 mm 0 m/S 739 mmHg 96%
01:00 +24°C° 0 mm 1 m/S 739 mmHg 96%
02:00 +24°C° 0 mm 1 m/S 739 mmHg 96%
03:00 +24°C° 0 mm 1 m/S 738 mmHg 96%
04:00 +24°C° 0 mm 1 m/S 739 mmHg 95%
05:00 +24°C° 0 mm 1 m/S 739 mmHg 95%
06:00 +24°C° 0 mm 1 m/S 740 mmHg 94%
07:00 +23°C° 0 mm 0 m/S 740 mmHg 90%
08:00 +24°C° 0 mm 0 m/S 740 mmHg 86%
09:00 +25°C° 0 mm 0 m/S 741 mmHg 82%
10:00 +27°C° 0.1 mm 0 m/S 740 mmHg 73%
11:00 +31°C° 0.1 mm 1 m/S 740 mmHg 64%
12:00 +33°C° 0.1 mm 1 m/S 740 mmHg 55%
13:00 +32°C° 0.6 mm 1 m/S 739 mmHg 58%
14:00 +32°C° 0.6 mm 2 m/S 738 mmHg 61%
15:00 +31°C° 0.6 mm 2 m/S 738 mmHg 64%
16:00 +30°C° 0.2 mm 2 m/S 738 mmHg 70%
17:00 +28°C° 0.2 mm 2 m/S 738 mmHg 76%
18:00 +27°C° 0.2 mm 2 m/S 738 mmHg 82%
19:00 +27°C° 0 mm 3 m/S 739 mmHg 84%
20:00 +26°C° 0 mm 3 m/S 739 mmHg 87%
21:00 +26°C° 0 mm 4 m/S 739 mmHg 89%
22:00 +25°C° 0 mm 3 m/S 739 mmHg 90%
23:00 +25°C° 0 mm 3 m/S 739 mmHg 91%

27 Juni, Sonntag

Zeit Temperatur Niederschläge Wind Luftdruck Luftfeuchtigkeit
00:00 +25°C° 0 mm 2 m/S 739 mmHg 92%
01:00 +25°C° 0 mm 2 m/S 738 mmHg 92%
02:00 +24°C° 0 mm 2 m/S 738 mmHg 93%
03:00 +24°C° 0 mm 2 m/S 738 mmHg 94%
04:00 +24°C° 0 mm 2 m/S 739 mmHg 95%
05:00 +24°C° 0 mm 1 m/S 739 mmHg 95%
06:00 +24°C° 0 mm 1 m/S 739 mmHg 96%
07:00 +26°C° 0 mm 1 m/S 740 mmHg 87%
08:00 +27°C° 0 mm 2 m/S 740 mmHg 78%
09:00 +29°C° 0 mm 2 m/S 741 mmHg 70%
10:00 +30°C° 0 mm 2 m/S 740 mmHg 65%
11:00 +31°C° 0 mm 2 m/S 740 mmHg 61%
12:00 +32°C° 0 mm 2 m/S 740 mmHg 56%
13:00 +30°C° 2.4 mm 2 m/S 739 mmHg 66%
14:00 +29°C° 2.4 mm 3 m/S 739 mmHg 75%
15:00 +27°C° 2.4 mm 3 m/S 738 mmHg 85%
16:00 +26°C° 1.5 mm 3 m/S 738 mmHg 88%
17:00 +25°C° 1.5 mm 2 m/S 738 mmHg 91%
18:00 +24°C° 1.5 mm 2 m/S 738 mmHg 94%
19:00 +24°C° 0 mm 1 m/S 739 mmHg 94%
20:00 +24°C° 0 mm 1 m/S 740 mmHg 94%
21:00 +22°C° 0 mm 0 m/S 741 mmHg 94%
22:00 +24°C° 0 mm 1 m/S 740 mmHg 94%
23:00 +23°C° 0 mm 1 m/S 740 mmHg 94%

28 Juni, Montag

Zeit Temperatur Niederschläge Wind Luftdruck Luftfeuchtigkeit
00:00 +23°C° 0 mm 1 m/S 740 mmHg 94%
01:00 +23°C° 0 mm 1 m/S 740 mmHg 93%
02:00 +23°C° 0 mm 1 m/S 740 mmHg 93%
03:00 +21°C° 0 mm 0 m/S 740 mmHg 92%
04:00 +21°C° 0 mm 0 m/S 740 mmHg 92%
05:00 +21°C° 0 mm 0 m/S 740 mmHg 92%
06:00 +23°C° 0 mm 1 m/S 741 mmHg 92%
07:00 +25°C° 0 mm 2 m/S 741 mmHg 87%
08:00 +26°C° 0 mm 2 m/S 741 mmHg 81%
09:00 +28°C° 0 mm 3 m/S 741 mmHg 75%
10:00 +29°C° 0.1 mm 3 m/S 741 mmHg 72%
11:00 +30°C° 0.1 mm 4 m/S 741 mmHg 68%
12:00 +32°C° 0.1 mm 4 m/S 741 mmHg 64%
13:00 +30°C° 0.9 mm 4 m/S 740 mmHg 67%
14:00 +30°C° 0.9 mm 4 m/S 740 mmHg 70%
15:00 +29°C° 0.9 mm 3 m/S 740 mmHg 74%
16:00 +28°C° 2 mm 3 m/S 740 mmHg 79%
17:00 +27°C° 2 mm 3 m/S 740 mmHg 84%
18:00 +26°C° 2 mm 3 m/S 741 mmHg 89%
19:00 +25°C° 1.9 mm 2 m/S 741 mmHg 91%
20:00 +25°C° 1.9 mm 2 m/S 742 mmHg 92%
21:00 +24°C° 1.9 mm 2 m/S 742 mmHg 94%
22:00 +24°C° 0.1 mm 2 m/S 742 mmHg 94%
23:00 +24°C° 0.1 mm 2 m/S 742 mmHg 94%
Mehr zeigen

Wir brauchen deine Erlaubnis

Meteoprog und unser Service Anbieter werden persönliche Daten aufbewahren, so wie Cookies, Geräte Bezeichnung oder ähnliche Technologien von deinem Gerät und Prozess, so wie Persönliche Daten Inhalte und Werbungen, genauso wie social Media und den Verkehr zu analysieren.

  • Aufbewahrung und/oder Zugang zu deiner Geräte Informationen.

    Cookies, Geräte Bezeichnung oder andere Informationen, können aufbewahrt oder Zugang zu deinem Gerät erhalten, für den Grund, der oben angegeben wird.

  • Personalisierte Werbung und Inhalte, Messungen, Einblick in das Publikum und Produkt Entwicklung.

    Werbungen und Inhalte können personalisiert werden, basierend auf ein Profil. Mehr Daten können besser personalisierte Werbungen und Inhalte hinzufügen. Werbung und Inhalte können gezeigt und gemessen werden. Einblicke über das Publikum, welche die Werbung gesehen haben und den Inhalt, können abgeleitet werden. So wie Daten können genutzt werden, um es zu verbessern oder die Benutzer Erfahrung zu verbessern das System und die Software.

Wenn du “Ich stimme zu” klickst, erlaubst du uns, die Cookies zu benutzen die Geräte Bezeichnung, den Web oder ähnliche Technologien zu benutzen. Deine Settings, können in deinem Gerät bei deinem Browser geändert werden.

Für den bestimmten Zweck, berechtigten Interessen beruhen darauf, mehr als auf den Inhalt. Du kannst mehr darüber in unseren Privaten und Cookie Politik lesen.